Date,TemperatureHighF,TemperatureAvgF,TemperatureLowF,DewpointHighF,DewpointAvgF,DewpointLowF,HumidityHigh,HumidityAvg,HumidityLow,PressureMaxIn,PressureMinIn,WindSpeedMaxMPH,WindSpeedAvgMPH,GustSpeedMaxMPH,PrecipitationSumIn
2013-1-1,105.1,88.6,69.1,65.8,54.7,45.3,83,38,14,29.96,29.74,4,1,19,0.00
2013-1-2,86.5,75.9,66.8,64.4,59.8,52.6,84,59,32,30.10,29.78,9,3,19,0.00
2013-1-3,83.6,73.4,66.6,61.1,58.8,56.3,75,61,45,30.13,29.99,7,2,17,0.00
2013-1-4,96.6,77.9,61.6,63.0,58.8,48.5,86,57,20,30.07,29.89,8,1,17,0.00
2013-1-5,102.3,81.9,64.3,65.8,60.2,49.7,86,54,18,30.05,29.93,5,1,13,0.00
2013-1-6,94.3,79.2,66.0,65.4,62.4,54.8,87,60,28,30.20,30.04,8,2,18,0.00
2013-1-7,92.9,78.5,67.4,66.0,62.2,57.5,87,60,31,30.23,29.99,8,2,18,0.00
2013-1-8,105.4,88.6,67.3,62.6,54.5,42.8,82,39,16,29.97,29.48,6,2,24,0.00
2013-1-9,96.1,82.6,70.1,62.0,54.2,45.3,64,41,20,29.76,29.38,11,4,24,0.00
2013-1-10,82.6,74.3,67.9,61.0,59.3,56.9,74,60,47,29.87,29.75,8,3,17,0.00
2013-1-11,110.8,85.0,63.5,68.9,61.4,53.0,87,53,16,29.89,29.64,3,0,16,0.00
2013-1-12,113.5,89.2,72.7,72.6,63.2,52.4,83,51,14,29.92,29.66,9,1,21,0.25
2013-1-13,88.4,75.9,70.1,69.9,66.6,63.9,91,74,49,29.94,29.67,9,2,18,0.23
2013-1-14,76.0,68.9,64.0,66.4,57.2,45.8,92,69,38,30.18,29.88,9,2,18,0.12
2013-1-15,83.8,71.8,62.6,61.2,58.5,55.0,88,66,39,30.18,29.98,7,2,17,0.01
2013-1-16,101.2,78.8,62.0,64.5,60.4,57.4,87,58,24,30.03,29.81,8,1,19,0.00
2013-1-17,100.2,79.4,69.4,66.8,63.4,59.9,81,61,28,29.94,29.74,1,0,8,0.00
2013-1-18,113.8,93.4,73.5,69.8,61.6,52.8,80,43,14,29.74,29.49,7,1,25,0.00
2013-1-19,82.6,73.8,65.3,66.8,62.0,56.4,87,67,49,30.03,29.73,7,2,13,0.20
2013-1-20,70.9,68.1,65.8,67.4,64.9,62.3,92,90,84,30.09,29.99,2,0,7,0.31
2013-1-21,83.2,75.1,68.8,67.0,66.1,64.8,90,75,55,30.04,29.90,7,2,14,0.00
2013-1-22,98.0,76.0,66.1,69.2,65.5,62.1,90,74,32,29.93,29.75,10,0,26,0.29
2013-1-23,79.8,72.8,67.1,67.1,65.1,63.3,91,78,62,30.08,29.88,6,1,14,0.01
2013-1-24,84.9,75.4,68.6,68.4,65.9,63.6,87,73,54,30.08,29.94,8,2,18,0.00
2013-1-25,91.6,79.4,68.9,69.8,67.6,63.9,92,70,40,29.98,29.80,7,1,16,0.00
2013-1-26,93.8,81.3,70.6,68.9,66.4,62.5,87,63,36,29.93,29.79,9,2,20,0.00
2013-1-27,76.1,72.5,69.4,72.0,58.9,-99.9,100,83,20,29.86,29.79,2,0,8,1.32
2013-1-28,71.1,70.5,69.4,71.1,28.9,-99.9,100,75,76,29.83,29.65,7,3,14,2.40
2013-1-29,89.7,75.2,69.3,73.5,44.5,-99.9,100,68,47,29.87,29.58,6,2,14,0.46
2013-1-30,83.6,74.1,68.8,67.8,65.8,64.2,87,76,57,30.02,29.89,7,2,14,0.00
2013-1-31,100.2,81.1,67.8,72.2,66.7,59.5,92,67,27,30.00,29.73,2,0,7,0.00
2013-2-1,86.7,74.0,64.3,71.4,66.4,61.9,92,79,48,29.79,29.64,11,1,22,0.46
2013-2-2,69.1,60.4,59.8,62.9,45.9,-99.9,93,74,59,30.01,29.72,5,1,13,0.39
2013-2-3,77.2,65.8,55.3,57.5,52.8,49.5,85,65,42,30.12,29.96,4,1,16,0.00
2013-2-4,81.8,70.2,59.2,61.8,58.5,55.3,89,68,43,30.29,30.11,7,2,17,0.00
2013-2-5,82.4,70.6,60.2,62.1,59.4,56.3,89,69,44,30.30,30.18,8,1,16,0.00
2013-2-6,84.7,72.1,61.8,62.5,59.0,53.1,91,67,35,30.22,30.07,6,1,16,0.00
2013-2-7,88.6,73.3,58.4,63.3,58.2,52.3,91,63,31,30.13,29.99,2,0,10,0.00
2013-2-8,96.3,77.2,59.5,65.4,59.2,52.1,90,60,24,30.13,30.00,2,0,7,0.00
2013-2-9,99.7,79.5,62.9,68.9,62.4,56.4,89,61,26,30.09,29.90,2,0,11,0.00
2013-2-10,98.0,80.1,67.8,69.4,64.4,56.5,90,64,27,30.17,29.90,7,1,16,2.13
2013-2-11,77.9,70.0,65.2,66.6,64.6,63.1,94,84,65,30.16,30.08,3,0,11,0.08
2013-2-12,78.8,70.7,66.8,67.0,63.5,60.5,87,78,62,30.23,30.10,6,1,14,0.01
2013-2-13,79.2,70.2,64.0,64.6,59.2,53.8,90,70,43,30.28,30.18,6,1,14,0.01
2013-2-14,81.4,70.0,57.2,62.2,58.0,54.0,91,68,43,30.24,30.12,6,1,14,0.00
2013-2-15,79.4,70.7,62.0,65.4,61.5,57.8,91,74,49,30.22,30.12,7,2,16,0.00
2013-2-16,81.8,70.6,63.4,66.5,61.3,58.0,89,74,45,30.23,30.12,7,1,17,0.07
2013-2-17,82.2,71.0,60.4,63.8,59.6,54.2,91,70,40,30.22,30.12,7,1,17,0.00
2013-2-18,82.4,71.1,59.8,64.2,59.7,56.2,90,69,46,30.17,30.01,8,2,19,0.00
2013-2-19,87.6,73.8,61.8,65.5,62.6,58.8,91,70,39,30.06,29.92,5,1,16,0.00
2013-2-20,84.7,73.8,65.8,68.1,63.7,59.9,91,73,45,30.10,29.98,7,2,16,0.01
2013-2-21,82.2,72.9,65.8,68.5,64.4,59.8,91,76,48,30.10,30.02,9,2,20,0.30
2013-2-22,78.5,70.0,65.0,66.7,64.1,60.5,93,83,54,30.08,30.00,11,3,28,0.07
2013-2-23,73.9,68.4,64.3,71.5,64.0,-99.9,93,91,89,30.01,29.72,9,5,19,3.17
2013-2-24,90.5,76.2,66.6,72.0,68.1,63.7,94,78,50,29.99,29.83,2,0,7,0.01
2013-2-25,89.9,77.5,68.3,72.6,68.9,65.4,92,76,52,30.09,29.98,4,0,11,0.00
2013-2-26,86.3,77.0,69.9,68.2,66.7,64.2,87,72,49,30.10,29.99,4,1,12,0.00
2013-2-27,90.1,77.2,66.8,68.0,64.8,61.9,88,68,40,30.05,29.87,2,0,6,0.00
2013-2-28,88.6,76.5,67.3,69.5,65.6,63.3,90,72,45,29.91,29.75,5,1,12,0.27
2013-3-1,65.8,63.1,61.5,64.0,60.3,-99.9,94,93,90,30.10,29.85,5,1,13,1.25
2013-3-2,64.8,62.9,60.7,63.0,61.1,59.0,94,94,93,30.18,30.08,4,1,10,1.33
2013-3-3,77.0,69.4,64.3,65.0,63.1,61.7,95,81,61,30.18,30.12,10,3,19,0.08
2013-3-4,78.5,71.2,64.5,63.4,61.6,59.7,87,73,56,30.21,30.14,8,3,18,0.00
2013-3-5,81.2,70.5,63.4,64.1,60.8,-99.9,89,74,53,30.21,30.12,7,2,14,0.00
2013-3-6,84.1,70.8,61.3,65.7,60.3,58.4,93,73,42,30.18,30.07,3,0,10,0.00
2013-3-7,86.1,71.9,60.1,63.9,60.2,55.7,92,70,40,30.19,30.06,2,0,8,0.00
2013-3-8,85.7,71.7,60.2,63.6,60.6,56.0,91,70,40,30.23,30.13,6,1,13,0.00
2013-3-9,85.7,74.5,66.0,64.4,61.8,57.1,88,67,40,30.21,30.09,3,0,11,0.00
2013-3-10,85.9,72.1,62.0,64.9,62.1,59.0,92,73,41,30.19,30.05,4,0,12,0.00
2013-3-11,84.0,72.0,62.6,66.6,62.7,59.6,91,75,48,30.20,30.10,8,1,17,0.00
2013-3-12,82.0,71.8,62.4,65.8,61.0,57.6,92,71,47,30.19,30.05,5,1,12,0.00
2013-3-13,87.0,71.6,59.3,62.8,59.4,55.8,92,69,35,30.08,29.87,2,0,8,0.00
2013-3-14,84.1,71.9,60.2,65.6,62.1,56.9,92,73,48,30.00,29.86,3,0,10,0.01
2013-3-15,79.0,71.5,67.3,69.2,65.9,63.6,90,83,65,30.09,29.98,2,0,8,0.08
2013-3-16,92.3,76.2,63.2,68.2,64.7,60.5,92,71,40,30.07,29.77,2,0,13,0.00
2013-3-17,78.8,71.5,61.6,67.2,54.4,41.8,85,58,27,30.14,29.81,5,1,16,0.08
2013-3-18,75.8,66.1,59.0,55.4,52.4,49.1,82,62,43,30.25,30.13,5,1,11,0.00
2013-3-19,78.3,65.9,54.4,58.5,54.4,50.9,90,69,42,30.32,30.21,7,1,14,0.00
2013-3-20,81.4,68.4,57.8,60.7,57.5,53.1,91,71,38,30.33,30.17,6,1,13,0.00
2013-3-21,87.8,70.2,55.1,61.2,56.6,51.9,92,66,30,30.22,29.98,1,0,8,0.00
2013-3-22,90.5,77.5,64.3,64.4,61.9,56.3,87,61,40,30.06,29.98,7,1,18,0.00
2013-3-23,91.6,78.7,69.8,66.5,62.9,58.4,82,60,37,30.08,29.95,3,1,14,0.01
2013-3-24,93.2,77.6,66.4,68.4,61.2,49.5,91,63,23,30.07,29.90,2,0,11,0.00
2013-3-25,88.0,73.1,59.9,63.7,57.7,53.3,86,62,32,30.14,30.01,3,0,10,0.00
2013-3-26,89.0,75.7,66.3,68.4,64.9,62.3,90,71,44,30.17,30.01,1,0,6,0.00
2013-3-27,94.0,76.8,63.1,68.7,63.5,60.1,92,68,33,30.16,30.01,1,0,8,0.00
2013-3-28,92.1,78.1,64.5,67.3,62.1,58.3,91,62,33,30.11,29.93,3,1,17,0.04
2013-3-29,75.6,67.9,59.8,67.2,55.8,48.2,92,67,45,30.15,29.98,6,1,16,0.07
2013-3-30,81.4,66.2,53.5,59.5,55.0,50.0,91,70,44,30.14,29.90,2,0,7,0.00
2013-3-31,80.3,68.8,61.5,59.1,55.7,50.5,88,66,36,30.05,29.87,1,0,7,0.00
2013-4-1,79.2,68.5,60.9,60.8,57.6,55.2,85,70,48,30.12,30.01,2,0,8,0.00
2013-4-2,86.5,68.9,55.7,59.4,53.8,46.0,92,65,26,30.08,29.96,4,0,11,0.00
2013-4-3,73.5,64.4,60.1,61.9,58.0,55.2,87,80,62,30.30,30.08,6,1,14,0.07
2013-4-4,69.8,63.1,57.8,62.0,58.2,54.2,90,84,71,30.45,30.31,6,0,13,0.07
2013-4-5,75.8,64.4,54.5,62.0,56.1,51.1,94,77,42,30.49,30.38,6,1,14,0.00
2013-4-6,76.3,63.9,54.5,60.0,55.7,51.6,92,77,45,30.43,30.26,6,1,18,0.00
2013-4-7,76.5,64.5,55.9,61.3,57.1,53.3,92,79,50,30.33,30.20,1,0,8,0.01
2013-4-8,58.1,55.6,53.8,54.9,52.7,51.2,91,90,89,30.28,30.26,0,0,0,0.00
2013-4-9,76.8,63.4,53.2,61.4,55.9,50.3,92,78,51,30.37,30.26,4,0,13,0.07
2013-4-10,77.2,64.2,53.3,61.0,56.1,50.7,93,77,46,30.33,30.19,3,0,12,0.01
2013-4-11,80.5,65.0,51.3,59.6,52.9,42.3,93,70,27,30.30,30.20,2,0,8,0.00
2013-4-12,79.2,65.3,53.2,61.2,55.6,50.4,92,74,43,30.36,30.22,4,0,12,0.00
2013-4-13,80.1,66.4,54.5,61.6,56.1,50.8,92,73,38,30.24,30.03,1,0,6,0.00
2013-4-14,85.7,67.7,53.6,59.5,53.4,47.5,92,66,27,30.04,29.90,1,0,6,0.00
2013-4-15,88.4,69.2,53.3,60.1,52.1,48.2,90,61,26,29.93,29.78,3,0,11,0.00
2013-4-23,77.7,61.3,46.8,51.2,46.5,43.2,90,63,30,30.07,29.94,2,0,10,0.00
2013-4-24,77.0,59.4,46.0,49.8,45.2,38.8,91,65,27,30.18,30.04,2,0,10,0.00
2013-4-25,76.0,58.3,46.8,47.1,44.7,40.5,88,65,28,30.27,30.16,1,0,8,0.00
2013-4-26,80.1,59.5,42.9,48.2,43.9,39.5,89,62,25,30.33,30.17,2,0,10,0.00
2013-4-27,81.6,60.1,44.8,53.4,47.5,41.5,90,67,29,30.28,30.10,1,0,5,0.00
2013-4-28,85.1,64.2,49.1,48.1,45.1,38.1,89,57,20,30.20,30.08,2,0,16,0.00
2013-4-29,88.4,65.3,47.3,61.1,46.5,38.0,88,59,18,30.28,30.17,1,0,7,0.00
2013-4-30,77.7,65.2,53.9,63.3,58.0,51.0,92,79,52,30.35,30.20,3,0,10,0.00
2013-5-1,84.7,71.2,60.9,61.0,56.7,50.2,92,66,31,30.22,29.98,3,0,16,0.00
2013-5-2,69.9,62.7,53.6,60.9,47.8,38.4,87,61,32,30.40,30.12,4,0,10,0.01
2013-5-3,75.3,58.4,46.2,51.4,46.6,42.4,91,69,33,30.41,30.17,0,0,6,0.00
2013-5-4,81.2,65.0,48.5,55.7,45.2,38.0,86,54,22,30.28,30.07,8,1,16,0.00
2013-5-5,69.4,60.0,52.0,50.3,47.3,44.3,82,64,44,30.32,30.20,3,0,10,0.00
2013-5-6,47.6,45.5,43.5,43.0,41.5,39.9,87,86,84,30.32,30.30,0,0,0,0.00
2013-5-7,68.3,57.1,46.4,55.4,50.2,43.3,92,79,55,30.46,30.36,3,0,8,0.00
2013-5-8,70.1,56.6,44.5,56.3,49.9,41.7,93,80,56,30.52,30.41,4,0,10,0.00
2013-5-9,73.3,56.6,45.8,57.1,48.2,43.0,93,76,40,30.52,30.41,1,0,6,0.11
2013-5-10,73.9,56.3,41.2,53.3,46.6,38.2,92,73,42,30.53,30.41,2,0,8,0.00
2013-5-11,72.1,59.9,49.5,59.1,53.6,46.8,92,81,61,30.50,30.38,4,0,11,0.01
2013-5-12,71.6,57.8,48.9,58.4,50.2,46.7,93,78,43,30.41,30.25,0,0,5,0.00
2013-5-13,76.8,59.8,47.0,56.7,50.2,44.2,92,74,39,30.24,30.00,1,0,8,0.02
2013-5-14,70.6,61.8,54.8,57.2,51.6,37.5,91,72,41,30.01,29.89,2,0,10,0.08
2013-5-15,69.6,55.1,42.2,43.4,40.2,36.8,85,60,34,30.06,29.92,3,1,14,0.00
2013-5-16,69.9,60.5,50.4,48.6,45.0,42.5,76,57,43,29.97,29.86,4,1,18,0.00
2013-5-17,68.9,58.9,52.8,46.8,41.6,34.4,74,55,28,30.03,29.92,5,1,18,0.00
2013-5-18,68.1,57.5,49.8,43.2,39.1,35.4,72,52,32,30.08,29.95,3,1,13,0.00
2013-5-19,66.9,56.1,48.8,40.7,37.0,33.5,65,50,30,30.14,30.04,2,0,12,0.00
2013-5-20,69.4,54.4,41.3,42.6,38.9,34.8,82,58,34,30.19,30.05,3,0,12,0.00
2013-5-21,73.2,60.8,48.5,43.2,40.9,38.1,77,50,28,30.12,29.97,3,1,17,0.00
2013-5-22,60.5,54.7,49.1,52.1,47.3,41.8,91,77,62,30.05,29.86,0,0,5,0.25
2013-5-23,59.3,54.8,51.1,55.8,52.2,49.4,94,91,82,30.05,29.87,2,0,11,0.06
2013-5-24,66.3,57.9,53.3,53.1,51.6,50.1,93,81,58,30.19,30.05,4,1,16,0.14
2013-5-25,69.1,58.9,51.3,51.6,49.4,45.7,90,73,47,30.32,30.20,2,0,10,0.02
2013-5-26,70.6,52.7,39.2,46.7,41.1,36.5,93,69,30,30.39,30.27,1,0,10,0.00
2013-5-27,62.4,50.0,38.6,55.0,45.6,35.9,92,85,65,30.50,30.34,2,0,8,0.01
2013-5-28,65.5,57.5,50.2,58.7,53.8,47.7,93,88,73,30.58,30.46,2,0,7,0.02
2013-5-29,66.9,56.8,50.7,58.7,52.1,47.2,93,85,63,30.55,30.42,0,0,3,0.00
2013-5-30,75.4,56.0,44.1,55.1,47.3,41.9,93,76,38,30.51,30.36,1,0,7,0.01
2013-5-31,77.4,57.2,42.8,54.5,47.8,40.2,93,74,40,30.47,30.30,0,0,6,0.00
2013-6-1,70.4,58.3,47.0,56.3,49.3,44.2,92,75,49,30.30,30.03,2,0,10,0.00
2013-6-2,62.4,56.7,50.8,57.1,52.1,44.7,92,85,67,30.07,29.77,3,0,16,0.62
2013-6-3,66.4,55.5,47.3,43.9,41.7,38.7,80,61,42,30.25,30.11,1,0,7,0.00
2013-6-4,43.1,41.1,39.2,39.5,38.1,36.5,90,89,87,30.35,30.29,0,0,0,0.00
2013-6-5,67.3,51.8,40.6,53.4,46.3,37.9,92,83,59,30.41,30.27,0,0,5,0.11
2013-6-6,65.5,56.0,48.8,55.1,50.2,46.3,92,82,60,30.33,30.22,0,0,3,0.00
2013-6-7,70.8,62.6,55.0,58.3,54.9,51.8,91,77,61,30.33,30.16,4,1,19,0.00
2013-6-8,63.1,55.6,45.8,56.0,50.9,42.7,92,84,74,30.52,30.37,1,0,5,0.00
2013-6-9,66.0,52.5,42.1,53.6,46.8,39.4,92,82,58,30.45,30.30,0,0,3,0.01
2013-6-10,69.4,52.9,43.1,57.0,48.9,40.5,93,87,59,30.29,30.16,1,0,7,0.03
2013-6-11,57.8,49.4,45.1,55.8,47.3,43.2,94,92,91,30.25,30.17,0,0,7,0.01
2013-6-12,58.0,51.9,46.0,56.3,49.8,42.9,94,92,88,30.10,29.87,1,0,8,5.53
2013-6-13,63.9,54.8,46.1,55.9,49.3,44.5,95,83,59,29.88,29.77,3,0,14,0.08
2013-6-14,55.3,54.8,53.8,50.7,50.1,48.8,86,84,83,29.83,29.81,1,0,10,0.01
2013-6-21,60.9,49.6,41.6,47.9,43.1,37.7,91,79,58,30.27,30.15,2,0,8,0.00
2013-6-22,61.8,49.1,37.6,47.7,42.4,35.2,93,79,55,30.39,30.27,1,0,10,0.00
2013-6-23,60.5,53.1,48.0,50.3,47.8,44.3,90,83,66,30.44,30.33,1,0,8,0.00
2013-6-24,65.3,55.5,49.9,49.3,44.5,35.7,89,69,35,30.33,30.05,2,0,12,0.00
2013-6-25,59.6,52.5,47.0,45.6,43.7,41.5,86,72,57,30.12,30.02,3,0,11,0.00
2013-6-26,65.2,35.0,49.6,57.6,-6.2,-99.9,88,55,70,30.22,30.10,7,1,18,0.19
2013-6-27,59.3,22.4,56.2,57.0,-41.9,-99.9,94,37,92,30.25,30.18,4,0,7,1.04
2013-6-28,62.0,49.2,52.5,58.1,34.6,-99.9,95,85,76,30.30,30.22,8,0,13,0.02
2013-6-29,59.5,51.6,54.5,56.9,31.0,-99.9,94,85,86,30.31,30.23,2,0,3,0.18
2013-6-30,59.6,25.8,54.1,54.1,-30.1,-99.9,94,44,78,30.34,30.27,4,0,8,0.04
2013-7-1,61.2,6.4,49.9,55.0,-84.2,-99.9,92,13,75,30.31,30.24,3,0,6,0.00
2013-7-2,64.2,2.3,47.1,50.2,-97.5,-99.9,62,3,56,30.34,30.21,0,-8,0,0.00
2013-7-3,-200.0,0.0,200.0,-99.9,-99.9,-99.9,0,0,100,30.35,30.22,0,-53,0,0.00
2013-7-4,73.3,9.8,69.3,51.5,-80.7,-99.9,91,10,42,30.21,29.97,9,-77,18,0.00
2013-7-5,70.6,16.0,57.6,40.9,-70.3,-99.9,39,10,32,30.10,29.90,7,-30,17,0.00
2013-7-6,62.1,36.5,43.1,37.3,-12.2,-99.9,71,37,29,30.30,30.16,6,-6,16,0.00
2013-7-7,63.9,33.1,38.3,39.8,-12.3,-99.9,80,43,39,30.46,30.34,1,-6,10,0.00
2013-7-8,47.9,15.2,33.4,44.2,-44.1,-99.9,91,40,83,30.59,30.49,3,-8,5,0.00
2013-7-9,60.2,41.2,36.8,46.8,14.6,-99.9,89,72,56,30.66,30.56,5,-6,11,0.00
2013-7-10,56.2,24.8,45.2,49.0,-28.1,-99.9,90,45,75,30.62,30.53,0,0,3,0.00
2013-7-11,-200.0,0.0,200.0,-99.9,-99.9,-99.9,0,0,100,30.64,30.56,0,0,0,0.00
2013-7-15,67.9,48.0,51.7,55.3,22.0,-99.9,93,67,56,30.36,30.26,2,0,8,0.47
2013-7-16,69.6,59.1,52.3,56.3,52.9,48.5,92,81,55,30.36,30.27,2,0,11,0.41
2013-7-17,74.2,36.1,48.2,57.6,-4.8,-99.9,93,53,48,30.34,30.22,1,0,8,0.00
2013-7-18,75.1,25.9,44.8,59.6,-30.9,-99.9,93,45,43,30.31,30.14,0,0,2,0.00
2013-7-19,69.3,28.3,47.3,58.8,-21.8,-99.9,94,49,54,30.14,29.97,4,0,12,1.10
2013-7-20,68.6,38.0,54.1,56.7,-11.7,-99.9,92,37,39,30.00,29.79,6,2,17,2.20
2013-7-21,62.3,53.4,45.7,39.5,33.6,26.1,68,49,27,30.15,30.00,3,1,20,0.00
2013-7-22,63.9,49.5,34.3,39.0,33.2,29.7,86,57,29,30.23,30.13,5,1,20,0.00
2013-7-23,64.0,52.5,44.6,39.5,36.3,33.4,66,55,39,30.27,30.15,4,1,18,0.00
2013-7-24,63.9,53.4,46.4,43.8,40.9,38.5,76,64,45,30.44,30.31,3,0,12,0.00
2013-7-25,64.7,49.4,37.3,45.0,40.1,34.1,92,73,45,30.52,30.39,1,0,6,0.00
2013-7-26,68.8,51.5,36.3,44.8,36.3,32.2,92,62,28,30.43,30.31,5,1,19,0.00
2013-7-27,65.5,49.6,36.6,48.2,39.6,32.5,88,70,43,30.54,30.41,1,0,6,0.00
2013-7-28,64.7,51.4,40.6,50.8,44.6,37.6,92,79,54,30.52,30.37,0,0,5,0.00
2013-7-29,72.8,52.4,37.0,50.8,43.1,34.3,92,74,40,30.41,30.23,0,0,5,0.00
2013-7-30,72.8,55.4,42.3,51.0,44.2,39.5,91,70,37,30.24,30.11,1,0,10,0.00
2013-7-31,62.7,56.0,51.6,52.8,48.7,-99.9,92,81,66,30.30,30.19,3,0,11,0.01
2013-8-1,66.1,51.6,38.3,50.0,42.9,35.6,93,75,41,30.31,30.17,2,0,7,0.01
2013-8-2,69.6,52.3,38.3,51.2,41.2,35.3,92,70,34,30.19,30.00,4,0,17,0.00
2013-8-3,66.4,57.6,50.5,40.8,38.2,35.8,64,49,34,30.13,29.99,6,2,18,0.00
2013-8-4,65.0,56.7,48.6,43.4,39.3,35.2,69,53,35,30.13,29.99,6,2,19,0.00
2013-8-5,67.3,56.9,47.6,39.5,37.7,34.9,67,50,32,30.18,30.05,4,1,17,0.00
2013-8-6,73.2,58.7,44.3,41.3,36.4,-99.9,77,48,26,30.10,29.88,5,1,25,0.00
2013-8-7,74.2,59.5,49.6,52.0,44.1,39.0,88,59,32,29.99,29.82,3,0,8,0.06
2013-8-8,58.9,54.3,49.6,50.3,42.6,37.8,93,66,48,30.07,29.78,4,1,16,0.00
2013-8-9,66.1,55.5,45.1,43.2,39.6,35.5,81,58,33,30.20,30.02,3,1,12,0.00
2013-8-10,74.4,63.3,51.9,41.5,37.9,33.9,60,40,26,30.13,30.01,4,1,14,0.00
2013-8-11,74.6,58.4,42.3,46.1,42.3,37.4,85,59,32,30.16,29.99,4,1,16,0.00
2013-8-12,78.6,58.0,42.5,49.8,42.7,38.4,89,62,26,29.96,29.70,5,1,18,0.00
2013-8-13,70.9,58.6,48.2,43.7,34.8,29.6,76,45,22,30.08,29.97,5,1,20,0.00
2013-8-14,74.6,59.4,45.5,38.0,32.6,26.9,67,40,17,30.07,29.86,3,0,16,0.00
2013-8-15,66.8,57.7,46.2,38.6,30.7,21.6,60,38,18,30.26,29.88,4,1,17,0.00
2013-8-16,69.6,50.0,32.5,39.7,33.3,27.6,86,58,24,30.33,30.05,1,0,5,0.00
2013-8-17,72.0,55.8,40.3,52.9,44.3,35.5,87,68,38,30.01,29.86,6,1,20,0.00
2013-8-18,73.3,59.2,44.1,40.5,36.3,33.0,77,46,23,30.16,29.98,3,0,14,0.00
2013-8-19,71.3,61.0,52.6,37.6,33.8,29.3,50,37,26,30.00,29.79,9,3,29,0.00
2013-8-20,62.6,52.3,44.9,33.7,29.3,22.4,64,43,23,30.10,29.96,4,1,16,0.00
2013-8-21,65.0,51.7,41.5,34.2,31.7,27.6,68,48,27,30.14,30.00,3,1,16,0.00
2013-8-22,66.9,54.2,40.9,37.6,34.0,30.1,73,49,27,30.09,29.93,6,1,19,0.00
2013-8-23,68.9,59.4,50.8,42.3,38.2,35.1,59,46,32,30.06,29.92,8,3,22,0.00
2013-8-24,73.7,62.4,54.2,48.1,45.0,42.0,72,55,32,30.26,30.07,3,1,12,0.00
2013-8-25,77.2,58.6,39.8,48.5,40.9,33.8,90,59,21,30.35,30.18,3,1,14,0.00
2013-8-26,74.9,58.1,42.1,46.5,39.7,34.0,84,56,24,30.34,30.16,2,0,11,0.00
2013-8-27,76.5,58.5,44.1,47.7,41.8,32.6,87,60,21,30.27,30.09,3,0,8,0.00
2013-8-28,76.3,55.0,41.6,46.6,40.9,35.3,89,66,23,30.25,30.14,2,0,11,0.00
2013-9-3,-200.0,0.0,200.0,-99.9,-99.9,-99.9,0,0,100,30.60,30.47,0,-27,0,0.00
2013-9-4,-200.0,0.0,200.0,-99.9,-99.9,-99.9,0,0,100,30.59,30.40,0,0,0,0.00
2013-9-5,-200.0,0.0,200.0,-99.9,-99.9,-99.9,0,0,100,30.47,30.29,0,-8,0,0.00
2013-9-6,81.9,18.3,64.3,60.1,-58.5,-99.9,83,18,33,30.39,21.58,4,-29,7,0.00
2013-9-7,87.6,70.7,53.2,55.7,47.7,38.8,94,53,19,23.00,20.19,5,1,9,0.00
2013-9-8,76.0,65.5,55.8,62.0,56.7,45.0,88,74,56,22.59,19.31,7,2,11,0.00
2013-9-9,82.1,68.6,63.8,62.1,59.5,54.3,88,75,39,23.31,19.12,2,1,8,0.00
2013-9-10,87.1,75.1,56.1,55.3,47.9,42.2,88,43,23,25.36,19.79,7,3,24,0.00
2013-9-11,79.6,67.2,52.0,47.4,39.1,26.6,74,41,15,25.86,25.40,5,2,17,0.00
2013-9-12,77.6,63.3,45.2,47.2,40.1,36.3,78,46,24,26.17,25.90,3,1,13,0.02
2013-9-13,66.8,58.4,51.3,49.8,46.7,43.1,75,66,49,26.43,26.21,7,3,15,0.00
2013-9-14,80.2,64.2,51.6,58.4,53.0,47.3,96,71,32,26.24,25.69,6,2,15,0.11
2013-9-15,73.0,60.5,48.1,55.5,52.1,46.5,95,76,45,25.79,25.79,7,2,18,0.00
2013-9-16,59.9,57.4,53.7,59.0,54.3,50.5,97,90,82,25.79,25.79,2,1,6,0.51
2013-9-17,72.7,63.4,55.6,59.1,55.3,51.2,97,76,56,25.83,25.48,5,2,18,0.07
2013-9-18,77.6,68.0,60.2,54.8,50.5,43.5,81,56,31,25.83,25.41,7,3,18,0.00
2013-9-19,74.5,67.0,60.2,46.1,41.8,36.3,56,41,25,25.43,25.43,5,3,16,0.00
2013-9-20,74.2,63.0,51.1,46.5,39.6,31.9,69,45,22,25.73,25.43,7,3,22,0.00
2013-9-21,75.7,61.6,47.8,48.3,43.6,40.6,77,54,30,25.77,25.77,4,1,9,0.00
2013-9-22,79.7,62.2,45.7,53.6,45.9,39.2,93,62,25,25.77,25.77,5,1,10,0.00
2013-9-23,88.7,69.2,48.7,56.2,46.4,34.0,97,55,15,25.77,25.77,4,1,14,0.04
2013-9-24,89.2,70.2,52.9,57.1,45.3,34.9,81,49,16,25.77,25.77,6,2,20,0.00
2013-9-25,92.3,75.0,55.0,52.9,46.0,41.9,71,40,18,25.77,25.77,3,1,10,0.00
2013-9-26,93.4,71.5,51.0,53.5,44.3,27.8,86,46,17,25.77,25.77,10,2,25,0.00
2013-9-27,78.7,63.0,47.6,46.5,38.1,27.1,69,43,16,25.77,25.77,7,2,18,0.00
2013-9-28,87.2,67.5,44.3,47.5,37.6,25.2,92,46,11,25.77,25.77,7,3,22,0.00
2013-9-29,82.3,67.1,50.8,50.4,40.7,35.4,70,41,20,25.77,25.77,6,2,13,0.00
2013-9-30,89.4,68.6,45.7,50.9,43.5,35.3,93,50,15,25.77,25.77,4,1,12,0.00
2013-10-1,91.8,66.8,50.9,63.5,52.9,44.3,80,64,30,25.77,25.77,8,2,27,0.07
2013-10-2,81.1,66.8,49.9,51.3,43.7,37.0,83,48,22,25.77,25.77,5,2,14,0.00
2013-10-3,69.7,60.3,50.8,50.5,44.3,38.7,85,57,34,25.77,25.77,6,2,15,0.03
2013-10-4,71.8,57.5,41.7,51.4,43.6,39.6,93,64,35,25.77,25.77,5,2,12,0.00
2013-10-5,87.3,66.6,42.5,51.9,42.0,32.9,94,52,16,25.77,25.77,5,2,15,0.00
2013-10-6,93.2,73.7,51.4,45.5,37.8,27.9,71,35,10,25.77,25.77,5,2,15,0.00
2013-10-7,78.5,65.6,52.3,54.0,45.5,38.9,66,50,28,25.77,25.77,10,3,20,0.00
2013-10-8,78.0,64.7,52.6,53.4,49.5,37.2,88,61,25,25.77,25.77,9,2,27,0.00
2013-10-9,89.0,67.2,44.6,52.4,44.0,33.1,93,54,14,25.77,25.77,4,2,12,0.00
2013-10-10,94.9,77.2,54.2,46.4,41.4,35.2,63,33,14,25.77,25.77,6,2,24,0.00
2013-10-11,78.0,70.9,61.3,60.1,54.1,40.1,80,58,27,25.77,25.77,8,4,17,0.00
2013-10-12,95.2,70.7,49.1,60.6,49.6,30.0,95,59,10,25.77,25.77,4,1,10,0.00
2013-10-13,95.9,78.3,59.3,58.5,49.9,29.7,86,47,10,25.77,25.77,9,3,28,0.00
2013-10-14,76.6,64.8,55.9,59.0,43.7,34.0,84,49,22,25.77,25.77,9,2,19,0.03
2013-10-15,79.4,62.6,43.3,41.6,36.6,32.1,78,43,19,25.77,25.77,3,1,11,0.00
2013-10-16,88.2,67.0,42.4,42.7,35.7,25.6,82,40,11,25.77,25.77,5,2,15,0.00
2013-10-17,95.0,73.6,49.8,53.4,42.0,16.3,74,39,6,25.77,25.77,8,3,31,0.00
2013-10-18,68.3,63.6,54.5,49.6,41.4,31.3,73,46,29,25.77,25.77,7,3,18,0.00
2013-10-19,79.8,62.8,45.7,56.9,49.5,43.2,92,66,33,25.77,25.77,9,3,21,0.00
2013-10-20,92.0,71.9,52.1,60.0,52.9,42.4,96,60,19,25.77,25.77,3,1,10,0.00
2013-10-21,98.4,78.1,56.0,58.5,53.1,48.4,92,50,19,25.77,25.77,3,1,11,0.01
2013-10-22,92.5,76.4,61.3,65.8,59.4,53.6,80,57,36,25.77,25.77,9,3,17,0.00
2013-10-23,95.7,82.8,70.3,64.6,54.5,37.5,82,43,17,25.77,25.77,8,3,23,0.00
2013-10-24,80.8,70.6,60.0,48.9,39.7,26.6,63,36,15,25.77,25.77,5,2,19,0.00
2013-10-25,82.1,63.3,43.4,50.9,33.4,15.8,73,40,9,25.77,25.77,4,1,11,0.00
2013-10-26,80.8,63.8,46.8,54.3,43.7,33.8,89,55,19,25.77,25.77,9,2,19,0.00
2013-10-27,81.3,65.0,48.8,55.8,49.2,38.2,93,63,23,25.77,25.77,8,2,16,0.00
2013-10-28,88.2,69.7,55.8,57.9,52.4,41.8,89,61,21,25.77,25.77,7,2,20,0.00
2013-10-29,91.1,66.1,54.8,60.4,56.1,51.3,94,74,30,25.77,25.77,8,2,26,0.97
2013-10-30,73.6,64.2,57.2,55.7,52.2,49.4,90,67,44,25.77,25.77,7,3,14,0.00
2013-10-31,81.5,65.1,49.6,57.5,50.7,40.9,95,65,24,25.77,25.77,7,2,17,0.00
2013-11-1,82.3,69.5,60.8,60.4,57.5,52.3,85,68,37,26.24,25.77,8,3,15,0.00
2013-11-2,95.8,75.6,55.3,61.0,50.5,32.6,95,52,12,26.24,26.24,4,1,19,0.00
2013-11-3,96.5,77.2,58.0,57.8,45.7,15.0,78,42,7,26.24,26.24,9,3,24,0.00
2013-11-4,70.7,62.5,55.6,52.3,46.2,40.5,81,57,36,26.24,26.24,9,3,21,0.00
2013-11-5,70.1,61.2,53.0,51.8,48.5,44.8,82,64,47,26.24,26.24,6,2,15,0.00
2013-11-6,82.5,63.7,46.1,55.8,50.6,43.9,93,66,27,26.24,26.24,8,2,17,0.00
2013-11-7,96.2,73.6,51.5,57.2,51.9,43.0,93,55,17,26.24,26.24,5,1,12,0.00
2013-11-8,102.1,81.6,57.1,59.2,50.8,44.4,86,43,15,26.24,26.24,6,2,17,0.00
2013-11-9,97.5,81.9,68.1,61.8,57.0,48.7,72,46,21,26.24,26.24,9,3,21,0.00
2013-11-10,71.8,65.3,60.8,59.6,56.2,50.6,93,74,48,26.24,26.24,7,3,16,0.03
2013-11-11,69.0,62.8,58.9,62.3,59.7,57.1,96,90,77,26.24,26.24,5,2,14,0.34
2013-11-12,80.9,65.6,59.1,65.0,60.0,54.3,96,84,40,26.24,25.87,5,1,9,0.40
2013-11-13,90.4,72.7,58.0,60.1,49.0,30.7,98,55,13,25.91,25.91,4,1,12,0.01
2013-11-14,90.6,71.9,54.6,55.6,47.7,29.3,83,50,12,25.91,25.91,8,2,16,0.00
2013-11-15,81.4,70.0,61.1,60.7,57.3,53.7,86,66,39,25.91,25.91,8,3,24,0.01
2013-11-16,72.1,64.2,60.1,60.0,56.8,54.0,92,78,53,25.91,25.91,7,2,14,0.11
2013-11-17,67.0,60.9,57.7,57.2,55.8,54.3,96,84,65,25.91,25.91,4,1,13,0.01
2013-11-18,61.9,58.7,56.7,58.2,56.5,54.4,96,92,85,25.91,25.91,5,2,14,2.18
2013-11-19,79.6,67.0,56.4,63.4,59.8,55.3,98,79,51,25.91,25.91,7,2,15,0.00
2013-11-20,83.2,69.3,58.0,66.2,61.0,56.6,97,77,46,25.91,25.91,7,2,13,0.00
2013-11-21,86.4,72.6,61.1,68.3,63.6,59.5,96,75,50,25.91,25.91,7,2,15,0.00
2013-11-22,75.7,69.4,66.4,67.8,64.2,61.9,93,84,71,25.91,25.91,5,2,11,0.18
2013-11-23,75.7,66.9,61.2,65.5,62.9,59.9,98,88,65,25.91,25.91,5,1,16,0.02
2013-11-24,86.7,69.1,55.7,61.3,55.2,46.2,98,67,25,25.91,25.91,8,2,17,0.02
2013-11-25,80.9,66.2,58.7,61.6,57.2,51.9,93,74,39,25.91,25.83,8,2,16,0.03
2013-11-26,76.0,64.8,54.4,54.6,51.7,48.8,86,64,42,25.85,25.85,7,2,16,0.02
2013-11-27,65.4,55.9,52.7,55.7,52.0,50.2,92,87,68,25.85,25.85,2,0,5,0.00
2013-12-17,86.2,79.4,67.6,62.9,60.4,55.0,81,54,35,30.16,30.05,7,3,17,0.00
2013-12-18,83.3,72.4,60.9,64.6,60.4,58.1,94,69,43,30.23,30.11,7,3,16,0.00
2013-12-19,93.3,74.9,58.0,67.1,60.7,50.9,94,65,24,30.21,30.01,5,1,12,0.00
2013-12-20,104.5,83.4,62.8,65.7,58.4,51.3,90,51,18,30.05,29.83,4,1,12,0.02
2013-12-21,90.0,80.4,72.3,71.1,66.6,62.0,81,63,52,30.02,29.87,9,3,20,0.00
2013-12-22,105.2,85.9,71.0,70.6,66.2,55.3,90,58,20,30.00,29.74,4,1,11,0.00
2013-12-23,98.2,86.1,70.2,67.1,60.7,55.6,84,47,26,29.82,29.66,6,2,20,0.00
2013-12-24,77.5,69.8,66.6,67.5,64.2,61.7,93,83,71,30.11,29.85,6,3,14,0.01
2013-12-25,71.5,68.5,65.6,68.2,65.2,62.3,96,89,81,30.10,29.92,3,1,9,0.01
2013-12-26,86.3,74.3,67.6,68.5,65.4,60.6,97,76,44,29.93,29.76,8,2,19,0.05
2013-12-27,83.7,72.2,61.4,66.0,63.0,59.8,95,75,50,29.91,29.77,9,3,19,0.00
2013-12-28,88.9,74.4,62.0,69.9,64.8,60.1,95,74,47,29.90,29.66,5,2,12,0.00
2013-12-29,82.1,72.6,62.6,70.7,61.8,54.0,96,71,49,30.01,29.61,9,4,21,0.00
2013-12-30,82.4,69.6,56.6,60.0,57.2,54.0,93,67,45,30.00,29.80,7,3,17,0.00
2013-12-31,94.2,72.7,56.8,65.9,58.9,49.4,93,67,22,30.00,29.77,11,2,23,0.00
2014-1-1,93.4,77.3,63.5,67.7,64.0,56.0,94,67,29,30.00,29.75,6,2,14,0.00
2014-1-2,99.5,85.6,71.9,69.9,61.9,49.7,83,51,20,29.75,29.58,6,2,17,0.01